• Em Portugal
  • Lista de países
  • Para 7 dias
  • Temperatura da água
  • Mapas de satélite
  • Mapa do tempo
  • Widgets de tempo
  • user-avatar
    Iniciar Sessão

    Previsão horária em Fier

    Hoje, 24 Fevereiro, Sábado

    Tempo Temperatura Precipitação Vento Pressão Humidade
    00:00 +9°C° 0 mm 6 m/s 752 mmHg 77%
    01:00 +9°C° 0 mm 6 m/s 752 mmHg 77%
    02:00 +9°C° 0,2 mm 6 m/s 751 mmHg 78%
    03:00 +9°C° 0,2 mm 6 m/s 751 mmHg 78%
    04:00 +9°C° 0,2 mm 6 m/s 751 mmHg 78%
    05:00 +9°C° 0,5 mm 5 m/s 751 mmHg 80%
    06:00 +9°C° 0,5 mm 5 m/s 752 mmHg 82%
    07:00 +8°C° 0 mm 4 m/s 752 mmHg 82%
    08:00 +10°C° 0,2 mm 4 m/s 752 mmHg 79%
    09:00 +11°C° 0,2 mm 4 m/s 753 mmHg 76%
    10:00 +12°C° 0,2 mm 4 m/s 753 mmHg 72%
    11:00 +13°C° 0 mm 4 m/s 753 mmHg 69%
    12:00 +14°C° 0 mm 4 m/s 753 mmHg 65%
    13:00 +14°C° 0 mm 3 m/s 753 mmHg 62%
    14:00 +14°C° 0,1 mm 3 m/s 753 mmHg 63%
    15:00 +14°C° 0,1 mm 3 m/s 753 mmHg 64%
    16:00 +14°C° 0,1 mm 3 m/s 753 mmHg 65%
    17:00 +14°C° 0,2 mm 2 m/s 753 mmHg 70%
    18:00 +13°C° 0,2 mm 2 m/s 753 mmHg 75%
    19:00 +12°C° 0,2 mm 2 m/s 753 mmHg 80%
    20:00 +10°C° 0,1 mm 2 m/s 753 mmHg 81%
    21:00 +10°C° 0,1 mm 2 m/s 754 mmHg 82%
    22:00 +9°C° 0,1 mm 2 m/s 754 mmHg 83%
    23:00 +9°C° 0,2 mm 3 m/s 754 mmHg 83%

    Amanhã, 25 Fevereiro, Domingo

    Tempo Temperatura Precipitação Vento Pressão Humidade
    00:00 +9°C° 0,2 mm 3 m/s 755 mmHg 83%
    01:00 +9°C° 0,2 mm 3 m/s 755 mmHg 83%
    02:00 +9°C° 0,3 mm 3 m/s 755 mmHg 83%
    03:00 +8°C° 0,3 mm 4 m/s 754 mmHg 83%
    04:00 +8°C° 0,3 mm 4 m/s 754 mmHg 83%
    05:00 +8°C° 0,4 mm 4 m/s 754 mmHg 83%
    06:00 +8°C° 0,4 mm 4 m/s 754 mmHg 83%
    07:00 +7°C° 0,4 mm 4 m/s 755 mmHg 83%
    08:00 +8°C° 0,3 mm 5 m/s 755 mmHg 80%
    09:00 +9°C° 0,3 mm 5 m/s 755 mmHg 78%
    10:00 +9°C° 0,3 mm 5 m/s 755 mmHg 76%
    11:00 +10°C° 0,3 mm 5 m/s 754 mmHg 74%
    12:00 +10°C° 0,3 mm 5 m/s 754 mmHg 72%
    13:00 +10°C° 0,3 mm 5 m/s 754 mmHg 71%
    14:00 +11°C° 1 mm 4 m/s 754 mmHg 75%
    15:00 +10°C° 1 mm 4 m/s 753 mmHg 78%
    16:00 +8°C° 1 mm 4 m/s 753 mmHg 82%
    17:00 +8°C° 2,2 mm 4 m/s 752 mmHg 83%
    18:00 +7°C° 2,2 mm 4 m/s 752 mmHg 84%
    19:00 +7°C° 2,2 mm 4 m/s 752 mmHg 85%
    20:00 +6°C° 3,9 mm 4 m/s 752 mmHg 85%
    21:00 +6°C° 3,9 mm 5 m/s 751 mmHg 85%
    22:00 +4°C° 3,9 mm 6 m/s 751 mmHg 85%
    23:00 +5°C° 2,8 mm 5 m/s 750 mmHg 86%

    Depois de amanhã, 26 Fevereiro, Segunda-feira

    Tempo Temperatura Precipitação Vento Pressão Humidade
    00:00 +5°C° 2,8 mm 5 m/s 750 mmHg 88%
    01:00 +3°C° 2,8 mm 5 m/s 750 mmHg 89%
    02:00 +3°C° 0,7 mm 5 m/s 749 mmHg 89%
    03:00 +3°C° 0,7 mm 5 m/s 749 mmHg 89%
    04:00 +2°C° 0,7 mm 6 m/s 749 mmHg 89%
    05:00 +2°C° 0,4 mm 5 m/s 749 mmHg 89%
    06:00 +2°C° 0,4 mm 5 m/s 749 mmHg 89%
    07:00 +3°C° 0,4 mm 4 m/s 749 mmHg 90%
    08:00 +3°C° 0,2 mm 4 m/s 749 mmHg 89%
    09:00 +4°C° 0,2 mm 4 m/s 750 mmHg 88%
    10:00 +4°C° 0,2 mm 3 m/s 750 mmHg 87%
    11:00 +5°C° 0 mm 3 m/s 749 mmHg 85%
    12:00 +7°C° 0 mm 2 m/s 749 mmHg 83%
    13:00 +8°C° 0 mm 2 m/s 749 mmHg 81%
    14:00 +8°C° 0 mm 2 m/s 749 mmHg 81%
    15:00 +8°C° 0 mm 2 m/s 749 mmHg 80%
    16:00 +10°C° 0 mm 1 m/s 749 mmHg 80%
    17:00 +8°C° 0,2 mm 3 m/s 749 mmHg 83%
    18:00 +7°C° 0,2 mm 4 m/s 749 mmHg 86%
    19:00 +6°C° 0,2 mm 5 m/s 749 mmHg 88%
    20:00 +5°C° 0,6 mm 6 m/s 749 mmHg 89%
    21:00 +5°C° 0,6 mm 6 m/s 750 mmHg 89%
    22:00 +5°C° 0,6 mm 7 m/s 750 mmHg 90%
    23:00 +4°C° 0,4 mm 7 m/s 750 mmHg 90%

    27 Fevereiro, Terça-feira

    Tempo Temperatura Precipitação Vento Pressão Humidade
    00:00 +4°C° 0,4 mm 7 m/s 750 mmHg 90%
    01:00 +4°C° 0,4 mm 7 m/s 751 mmHg 90%
    02:00 +4°C° 0,5 mm 6 m/s 751 mmHg 89%
    03:00 +3°C° 0,5 mm 6 m/s 751 mmHg 89%
    04:00 +3°C° 0,5 mm 5 m/s 751 mmHg 89%
    05:00 +3°C° 0,3 mm 5 m/s 752 mmHg 87%
    06:00 +3°C° 0,3 mm 5 m/s 752 mmHg 86%
    07:00 +3°C° 0,3 mm 5 m/s 753 mmHg 85%
    08:00 +5°C° 0,1 mm 5 m/s 753 mmHg 81%
    09:00 +4°C° 0,1 mm 6 m/s 753 mmHg 78%
    10:00 +5°C° 0,1 mm 6 m/s 753 mmHg 74%
    11:00 +7°C° 0,1 mm 5 m/s 753 mmHg 74%
    12:00 +7°C° 0,1 mm 5 m/s 753 mmHg 74%
    13:00 +7°C° 0,1 mm 5 m/s 753 mmHg 74%
    14:00 +7°C° 0,3 mm 4 m/s 753 mmHg 78%
    15:00 +7°C° 0,3 mm 3 m/s 753 mmHg 82%
    16:00 +7°C° 0,3 mm 3 m/s 754 mmHg 86%
    17:00 +5°C° 0,2 mm 3 m/s 754 mmHg 87%
    18:00 +5°C° 0,2 mm 3 m/s 754 mmHg 88%
    19:00 +4°C° 0,2 mm 3 m/s 755 mmHg 90%
    20:00 +4°C° 0,1 mm 3 m/s 755 mmHg 89%
    21:00 +4°C° 0,1 mm 3 m/s 755 mmHg 89%
    22:00 +4°C° 0,1 mm 3 m/s 756 mmHg 89%
    23:00 +4°C° 0 mm 3 m/s 756 mmHg 89%

    28 Fevereiro, Quarta-feira

    Tempo Temperatura Precipitação Vento Pressão Humidade
    00:00 +3°C° 0 mm 3 m/s 756 mmHg 88%
    01:00 +3°C° 0 mm 3 m/s 756 mmHg 88%
    02:00 +3°C° 0 mm 4 m/s 756 mmHg 87%
    03:00 +1°C° 0 mm 4 m/s 756 mmHg 86%
    04:00 0°C° 0 mm 4 m/s 756 mmHg 85%
    05:00 0°C° 0 mm 4 m/s 757 mmHg 84%
    06:00 0°C° 0 mm 4 m/s 758 mmHg 83%
    07:00 0°C° 0 mm 4 m/s 758 mmHg 81%
    08:00 +1°C° 0 mm 4 m/s 759 mmHg 73%
    09:00 +4°C° 0 mm 4 m/s 759 mmHg 66%
    10:00 +5°C° 0 mm 4 m/s 759 mmHg 58%
    11:00 +6°C° 0 mm 4 m/s 760 mmHg 58%
    12:00 +6°C° 0 mm 4 m/s 760 mmHg 58%
    13:00 +6°C° 0 mm 4 m/s 760 mmHg 58%
    14:00 +6°C° 0 mm 4 m/s 761 mmHg 59%
    15:00 +6°C° 0 mm 4 m/s 761 mmHg 60%
    16:00 +6°C° 0 mm 4 m/s 761 mmHg 61%
    17:00 +4°C° 0 mm 4 m/s 762 mmHg 66%
    18:00 +3°C° 0 mm 4 m/s 763 mmHg 70%
    19:00 +1°C° 0 mm 3 m/s 763 mmHg 74%
    20:00 +1°C° 0 mm 3 m/s 764 mmHg 72%
    21:00 +1°C° 0 mm 3 m/s 764 mmHg 71%
    22:00 +2°C° 0 mm 2 m/s 765 mmHg 69%
    23:00 +2°C° 0 mm 2 m/s 765 mmHg 67%

    1 Março, Quinta-feira

    Tempo Temperatura Precipitação Vento Pressão Humidade
    00:00 +2°C° 0 mm 2 m/s 765 mmHg 64%
    01:00 +2°C° 0 mm 2 m/s 765 mmHg 61%
    02:00 +1°C° 0 mm 3 m/s 764 mmHg 60%
    03:00 +2°C° 0 mm 3 m/s 764 mmHg 59%
    04:00 +2°C° 0 mm 3 m/s 764 mmHg 57%
    05:00 +3°C° 0 mm 3 m/s 764 mmHg 58%
    06:00 +3°C° 0 mm 3 m/s 764 mmHg 58%
    07:00 +4°C° 0 mm 3 m/s 764 mmHg 59%
    08:00 +7°C° 0 mm 3 m/s 764 mmHg 59%
    09:00 +9°C° 0 mm 3 m/s 764 mmHg 59%
    10:00 +11°C° 0 mm 3 m/s 763 mmHg 59%
    11:00 +11°C° 0 mm 4 m/s 763 mmHg 59%
    12:00 +12°C° 0 mm 4 m/s 762 mmHg 60%
    13:00 +13°C° 0 mm 5 m/s 762 mmHg 60%
    14:00 +13°C° 0 mm 5 m/s 762 mmHg 62%
    15:00 +13°C° 0 mm 5 m/s 761 mmHg 64%
    16:00 +13°C° 0 mm 5 m/s 761 mmHg 66%
    17:00 +10°C° 0 mm 5 m/s 761 mmHg 69%
    18:00 +9°C° 0 mm 6 m/s 761 mmHg 72%
    19:00 +8°C° 0 mm 6 m/s 761 mmHg 76%
    20:00 +8°C° 0 mm 6 m/s 761 mmHg 75%
    21:00 +7°C° 0 mm 6 m/s 761 mmHg 75%
    22:00 +7°C° 0 mm 6 m/s 760 mmHg 75%
    23:00 +6°C° 0 mm 7 m/s 760 mmHg 74%
    Mostrar mais